ニート-ロニオス彗星

343P/NEAT-LONEOS (2017)

English version
Home page
Updated on February 8, 2021

---------------------------------------------------------------------

・ プロフィール

符号 343P/2016 P3
検出日 2016年8月12日
検出光度 19.9等
検出者 Pan-STARRS 1 telescope (Haleakala)

・ 写真集

・ 軌道要素

Epoch 2017 Feb. 16.0 TT = JDT 2457800.5
T 2017 Jan. 27.72462 TT                                 MPCW
q   2.2801613            (2000.0)            P               Q
n   0.07692077     Peri.  137.54482     +0.81815961     -0.56711164
a   5.4757082      Node   257.24192     +0.49797736     +0.78134771
e   0.5835860      Incl.    5.58174     +0.28746025     +0.26053819
P  12.81
From 258 observations 2003 Sept. 18-2017 Jan. 29, mean residual 0".5.

・ 光度変化

        m1 = 12.5 + 5 logΔ + 10.0 log r

---------------------------------------------------------------------

軌道要素はM.P.E.C. 2017-E59に掲載されたものです。
光度グラフはComet for Windowsで作成したものです。

---------------------------------------------------------------------

Copyright(C) Seiichi Yoshida (comet@aerith.net). All rights reserved.